Chadron, NE

5:38 AM MDT on March 29, 2017 (GMT -0600)
Chadron Municipal

Weather History for KCDR - February, 2014

Change the Weather History Date:

Thursday, February 13, 2014

  Actual Average Record
Temperature  
Mean Temperature 34 °F 27 °F  
Max Temperature 48 °F 41 °F 69 °F (1954)
Min Temperature 19 °F 12 °F -18 °F (1936)
Degree Days  
Heating Degree Days 31 38  
Month to date heating degree days 728 510  
Since 1 July heating degree days 4920 4709  
Cooling Degree Days 0 0  
Month to date cooling degree days 0 0  
Year to date cooling degree days 0 0  
Moisture  
Dew Point 28 °F    
Average Humidity 73    
Maximum Humidity 92    
Minimum Humidity 53    
Precipitation  
Precipitation 0.01 in 0.02 in 0.84 in (1915)
Month to date precipitation 0.21 0.24  
Year to date precipitation 0.41 0.60  
Sea Level Pressure  
Sea Level Pressure 29.80 in    
Wind  
Wind Speed 8 mph (West)    
Max Wind Speed 25 mph    
Max Gust Speed 33 mph    
Visibility 10 miles    
Events      
T = Trace of Precipitation, MM = Missing Value Source: NWS Daily Summary

Daily Weather History Graph

Daily Weather History Graph

Search for Another Location

Airport or City:

Trip Planner

Search our weather history database for the weather conditions in past years. The results will help you decide how hot, cold, wet, or windy it might be!

Date:

Astronomy

Feb. 13, 2014 Rise Set
Actual Time 6:52 AM MST 5:21 PM MST
Civil Twilight 6:23 AM MST 5:50 PM MST
Nautical Twilight 5:49 AM MST 6:23 PM MST
Astronomical Twilight 5:17 AM MST 6:56 PM MST
Moon 4:32 PM MST (2/13) 5:47 AM MST (2/13)
Length of Visible Light 11h 27m
Length of Day
10h 29m
Waxing Gibbous, 99% of the Moon is Illuminated
Feb 13
Waxing Gibbous
Feb 14
Full
Feb 22
Last Quarter
Mar 1
New
Mar 8
First Quarter

Hourly Weather History & Observations

Time (MST) Temp. Windchill Dew Point Humidity Pressure Visibility Wind Dir Wind Speed Gust Speed Precip Events Conditions
12:53 AM 35.1 °F 26.9 °F 28.0 °F 76% 29.81 in 10.0 mi NW 11.5 mph - N/A   Clear
1:53 AM 33.1 °F 26.1 °F 27.0 °F 78% 29.83 in 10.0 mi NW 8.1 mph - N/A   Clear
2:53 AM 33.1 °F 26.9 °F 26.1 °F 75% 29.85 in 10.0 mi SW 6.9 mph - N/A   Clear
3:53 AM 25.0 °F 17.1 °F 19.9 °F 81% 29.87 in 10.0 mi SW 6.9 mph - N/A   Clear
4:53 AM 28.9 °F 20.4 °F 23.0 °F 78% 29.88 in 10.0 mi WSW 9.2 mph - N/A   Clear
5:53 AM 26.1 °F 17.6 °F 21.0 °F 81% 29.89 in 10.0 mi SW 8.1 mph - N/A   Clear
6:53 AM 25.0 °F 19.3 °F 19.9 °F 81% 29.89 in 10.0 mi SSW 4.6 mph - N/A   Clear
7:53 AM 21.9 °F 17.2 °F 19.0 °F 89% 29.90 in 10.0 mi WSW 3.5 mph - N/A   Clear
8:53 AM 28.0 °F 24.2 °F 19.9 °F 72% 29.88 in 10.0 mi West 3.5 mph - N/A   Clear
9:53 AM 34.0 °F 28.0 °F 26.1 °F 73% 29.86 in 10.0 mi West 6.9 mph - N/A   Clear
10:53 AM 42.1 °F - 28.0 °F 58% 29.81 in 10.0 mi Calm Calm - N/A   Clear
11:53 AM 44.1 °F - 28.9 °F 55% 29.77 in 10.0 mi Calm Calm - N/A   Clear
12:53 PM 44.1 °F - 30.9 °F 60% 29.72 in 10.0 mi Calm Calm - N/A   Clear
1:53 PM 44.1 °F 40.8 °F 32.0 °F 63% 29.70 in 10.0 mi North 5.8 mph - N/A   Clear
2:53 PM 46.9 °F - 32.0 °F 56% 29.67 in 10.0 mi Calm Calm - N/A   Clear
3:53 PM 45.0 °F - 34.0 °F 65% 29.67 in 10.0 mi Calm Calm - N/A   Clear
4:53 PM 41.0 °F 35.8 °F 33.1 °F 73% 29.67 in 10.0 mi SW 8.1 mph - N/A   Partly Cloudy
5:53 PM 39.0 °F 31.8 °F 32.0 °F 76% 29.72 in 10.0 mi WNW 11.5 mph - N/A   Mostly Cloudy
6:13 PM 39.2 °F 30.2 °F 30.2 °F 70% 29.69 in 10.0 mi North 17.3 mph 27.6 mph N/A   Mostly Cloudy
6:53 PM 39.0 °F 31.0 °F 30.9 °F 73% 29.78 in 10.0 mi NNE 13.8 mph 26.5 mph N/A   Mostly Cloudy
7:53 PM 39.9 °F 31.1 °F 30.0 °F 68% 29.84 in 10.0 mi WNW 17.3 mph 31.1 mph N/A   Overcast
8:53 PM 36.0 °F 25.3 °F 32.0 °F 86% 29.85 in 10.0 mi West 19.6 mph - 0.01 in   Overcast
9:53 PM 35.1 °F 25.5 °F 32.0 °F 89% 29.85 in 10.0 mi West 15.0 mph - N/A   Overcast
10:53 PM 37.0 °F 27.7 °F 30.9 °F 79% 29.84 in 10.0 mi WNW 16.1 mph - N/A   Scattered Clouds
11:53 PM 36.0 °F 26.7 °F 30.9 °F 82% 29.85 in 10.0 mi WNW 15.0 mph - N/A   Mostly Cloudy